Winner, SD

11:37 AM CST on January 19, 2018 (GMT -0600)
Winner

Weather History for KICR - July, 2012

Change the Weather History Date:

Thursday, July 19, 2012

  Actual Average Record
Temperature  
Mean Temperature 83 °F 76 °F  
Max Temperature 106 °F 89 °F 106 °F (2012)
Min Temperature 59 °F 63 °F 59 °F (2012)
Degree Days  
Heating Degree Days 0 0  
Month to date heating degree days 0 0  
Since 1 June heating degree days 8 54  
Since 1 July heating degree days 0 0  
Cooling Degree Days 18 11  
Month to date cooling degree days 349 190  
Year to date cooling degree days 768 365  
Since 1 June cooling degree days 671 335  
Growing Degree Days 37 (Base 50)    
Moisture  
Dew Point 62 °F    
Average Humidity 53    
Maximum Humidity 84    
Minimum Humidity 21    
Precipitation  
Precipitation 0.06 in 0.07 in 0.81 in (2010)
Month to date precipitation 0.35 1.87  
Year to date precipitation 9.54 13.59  
Sea Level Pressure  
Sea Level Pressure 29.94 in    
Wind  
Wind Speed 12 mph (South)    
Max Wind Speed 55 mph    
Max Gust Speed 68 mph    
Visibility 10 miles    
Events Rain , Thunderstorm    
T = Trace of Precipitation, MM = Missing Value Source: NWS Daily Summary

Daily Weather History Graph

Daily Weather History Graph

Search for Another Location

Airport or City:

Trip Planner

Search our weather history database for the weather conditions in past years. The results will help you decide how hot, cold, wet, or windy it might be!

Date:

Astronomy

Jul. 19, 2012 Rise Set
Actual Time 6:16 AM CDT 9:14 PM CDT
Civil Twilight 5:42 AM CDT 9:48 PM CDT
Nautical Twilight 4:59 AM CDT 10:31 PM CDT
Astronomical Twilight 4:08 AM CDT 11:21 PM CDT
Moon 6:55 AM CDT 9:17 PM CDT
Length of Visible Light 16h 05m
Length of Day
14h 57m
New Moon, 0% of the Moon is Illuminated
Jul 19
New Moon
Jul 26
First Quarter
Aug 1
Full
Aug 9
Last Quarter
Aug 17
New

Hourly Weather History & Observations

Time (CDT) Temp. Heat Index Dew Point Humidity Pressure Visibility Wind Dir Wind Speed Gust Speed Precip Events Conditions
12:53 AM 78.1 °F - 66.0 °F 66% 29.91 in 10.0 mi SSE 10.4 mph - N/A   Clear
1:53 AM 75.0 °F - 66.9 °F 76% 29.91 in 10.0 mi South 5.8 mph - N/A   Clear
2:53 AM 75.0 °F - 66.9 °F 76% 29.90 in 10.0 mi SSE 5.8 mph - N/A   Clear
3:53 AM 73.9 °F - 66.0 °F 76% 29.90 in 10.0 mi South 5.8 mph - N/A   Clear
4:53 AM 73.0 °F - 64.9 °F 76% 29.92 in 10.0 mi SSE 5.8 mph - N/A   Clear
5:53 AM 70.0 °F - 64.0 °F 81% 29.94 in 10.0 mi South 5.8 mph - N/A   Unknown
6:53 AM 69.1 °F - 64.0 °F 84% 29.96 in 10.0 mi Calm Calm - N/A   Unknown
7:53 AM 75.9 °F - 64.9 °F 69% 29.96 in 10.0 mi SSE 4.6 mph - N/A   Unknown
8:53 AM 87.1 °F 87.0 °F 61.0 °F 41% 29.96 in 10.0 mi SSE 5.8 mph - N/A   Unknown
9:53 AM 91.0 °F 90.0 °F 57.9 °F 33% 29.97 in 10.0 mi South 9.2 mph - N/A   Unknown
10:53 AM 93.0 °F 93.0 °F 61.0 °F 34% 29.97 in 10.0 mi South 17.3 mph - N/A   Clear
11:53 AM 96.1 °F 97.3 °F 63.0 °F 33% 29.96 in 10.0 mi South 13.8 mph - N/A   Clear
12:53 PM 100.0 °F 101.8 °F 63.0 °F 29% 29.95 in 10.0 mi South 13.8 mph - N/A   Clear
1:53 PM 102.9 °F 103.6 °F 60.1 °F 24% 29.93 in 10.0 mi SSE 16.1 mph 25.3 mph N/A   Clear
2:53 PM 104.0 °F 104.0 °F 57.9 °F 22% 29.92 in 10.0 mi South 17.3 mph 24.2 mph N/A   Clear
3:53 PM 105.1 °F 105.7 °F 59.0 °F 22% 29.90 in 10.0 mi SSE 12.7 mph 20.7 mph N/A   Clear
4:53 PM 105.1 °F 105.0 °F 57.9 °F 21% 29.87 in 10.0 mi SE 11.5 mph 31.1 mph N/A   Clear
5:53 PM 100.0 °F 100.2 °F 59.0 °F 26% 29.88 in 10.0 mi SE 10.4 mph - N/A   Clear
6:48 PM 96.8 °F 98.0 °F 62.6 °F 32% 29.97 in 10.0 mi South 17.3 mph - 0.00 in Rain , Thunderstorm Light Rain
6:53 PM 97.0 °F 97.8 °F 62.1 °F 31% 29.90 in 10.0 mi South 12.7 mph - 0.00 in Rain , Thunderstorm Light Thunderstorms and Rain
7:26 PM 73.4 °F - 64.4 °F 73% 30.03 in 10.0 mi West 48.3 mph 67.9 mph 0.02 in Rain , Thunderstorm Light Thunderstorms and Rain
7:53 PM 75.0 °F - 64.0 °F 69% 29.99 in 8.0 mi South 25.3 mph 38.0 mph 0.06 in Rain , Thunderstorm Light Thunderstorms and Rain
8:00 PM 75.2 °F - 62.6 °F 65% 30.00 in 10.0 mi SSE 28.8 mph 39.1 mph 0.00 in Rain , Thunderstorm Light Thunderstorms and Rain
8:19 PM 78.8 °F - 60.8 °F 54% 29.98 in 10.0 mi SSE 28.8 mph 38.0 mph 0.00 in   Mostly Cloudy
8:53 PM 80.1 °F 80.7 °F 59.0 °F 48% 29.91 in 10.0 mi South 28.8 mph 38.0 mph 0.00 in Rain Light Rain
9:53 PM 82.0 °F 81.7 °F 57.0 °F 42% 29.90 in 10.0 mi SSE 19.6 mph 33.4 mph 0.00 in   Clear
10:53 PM 81.0 °F 81.1 °F 57.9 °F 45% 29.92 in 10.0 mi South 20.7 mph 31.1 mph N/A   Clear
11:53 PM 80.1 °F 80.7 °F 59.0 °F 48% 29.93 in 10.0 mi South 11.5 mph - N/A   Clear